Location: Valdosta
(30.8330°N, 83.2790°W)
Time: 11:59:18
(UTC-04:00)

Daily predictions for brighter satellites

Satellite Brightness Start Highest point End
(mag) Time Altitude Azimuth Time Altitude Azimuth Time Altitude Azimuth
Meteor 2-15 4.4 20:57:19 10° S 21:03:20 77° E 21:09:24 10° N
Cosmos 1356 Rocket 4.5 21:02:00 10° SSE 21:05:36 27° E 21:09:14 10° NNE
GEOS 3 Rocket 3.6 21:00:34 10° SSE 21:05:40 88° ENE 21:10:51 10° NNW
SJ-6B 4.3 21:04:49 10° SSW 21:08:21 37° W 21:11:52 10° NNW
Helios 1A 4.4 21:05:15 10° ESE 21:08:26 22° ENE 21:11:38 10° NNE
Okean 3 Rocket 4.0 21:05:12 10° SSE 21:09:27 43° E 21:13:40 10° NNE
SL-16 R/B 2.5 21:06:55 10° N 21:12:26 52° ENE 21:17:54 10° SE
Cosmos 1340 Rocket 2.9 21:08:41 10° S 21:12:42 88° W 21:16:46 10° N
Aureole 2 Rocket 4.5 21:09:25 10° NW 21:12:51 30° W 21:16:02 10° SSW
CZ-2D R/B 3.3 21:10:56 10° S 21:14:45 84° WSW 21:18:37 10° NNW
Cosmos 1818 3.9 21:12:26 10° NNW 21:17:44 52° ENE 21:22:58 10° SE
Cosmos 2219 Rocket 4.3 21:14:31 10° NW 21:19:03 25° WSW 21:23:33 10° SSW
Delta 2 Rocket 4.2 21:15:39 10° WSW 21:21:04 79° NNW 21:26:52 10° ENE
Envisat 3.2 21:17:30 10° SSE 21:22:25 54° ENE 21:27:21 10° N
Cosmos 1939 Rocket 3.6 21:21:05 10° SE 21:24:47 37° ENE 21:28:33 10° N
YAOGAN 6 3.8 21:28:48 14° SE 21:31:14 26° ENE 21:34:21 10° NNE
Meteor 1-29 3.2 21:32:27 10° NNE 21:35:49 48° E 21:39:10 10° S
CZ-4B DEB 3.4 21:40:42 21° SE 21:42:08 33° ENE 21:44:51 10° N
Cosmos 2227 4.3 21:39:54 10° SSW 21:45:38 82° WNW 21:51:22 10° NNE
Resurs 01 Rocket 3.2 21:43:03 10° SSW 21:47:02 34° W 21:51:02 10° NNW
Cosmos 2208 Rocket 4.0 21:43:21 10° NNW 21:48:43 76° ENE 21:53:10 16° SSE
Cosmos 1726 3.6 21:46:42 10° NNE 21:49:26 20° ENE 21:50:10 19° E
Atlas Centaur 2 2.0 21:45:52 10° W 21:49:27 33° SSW 21:51:08 22° SSE
Cosmos 1076 Rocket 3.6 21:47:14 10° S 21:51:35 79° W 21:55:58 10° N
SJ-11-01 4.3 21:49:24 12° SSE 21:53:44 88° E 21:58:30 10° NNW
Cosmos 1459 Rocket 4.0 21:47:38 10° N 21:53:49 62° E 21:58:48 16° SSE
USA 234 3.7 21:48:33 10° ENE 21:54:31 37° SE 22:00:27 10° SSW
Cosmos 1570 Rocket 4.1 21:51:13 10° NNW 21:56:31 80° WSW 22:00:52 15° S
Cosmos 2263 Rocket 2.6 21:52:17 10° S 21:57:22 38° ESE 22:02:28 10° NE
Meteor 2-17 Rocket 4.4 21:57:51 10° N 22:04:02 81° E 22:09:06 16° S
USA 186 4.2 22:03:51 10° WSW 22:04:32 11° W 22:05:12 10° W
ERS-1 Rocket 3.3 22:01:53 24° SE 22:04:34 48° ENE 22:09:23 10° N
SAR-Lupe-4 3.4 22:03:19 28° SSE 22:05:06 80° ENE 22:08:41 10° N
Cosmos 371 Rocket 4.3 22:03:02 10° N 22:07:19 31° ENE 22:08:54 25° ESE
Sakura Rocket 4.4 21:58:35 10° W 22:08:00 75° S 22:12:52 22° ESE
Cosmos 2100 Rocket 4.0 22:02:02 10° N 22:08:24 90° WNW 22:13:54 15° S
Cosmos 1408 Rocket 3.5 22:04:32 10° S 22:08:50 82° W 22:13:10 10° N
Cosmos 468 Rocket 4.1 22:05:39 10° N 22:10:41 55° ENE 22:13:00 30° SE
Cosmos 2123 Rocket 4.0 22:06:11 17° SSE 22:10:57 58° E 22:17:01 10° NNE
Cosmos 1300 3.6 22:07:58 10° NNE 22:11:21 30° E 22:11:40 29° E
Milstar 3 Cent rocket 3.6 22:05:56 10° W 22:12:18 50° SSW 22:19:28 23° SE
Cosmos 2173 Rocket 4.0 22:07:01 10° N 22:13:15 90° ESE 22:18:13 17° S
Cosmos 2221 3.7 22:10:47 10° NNW 22:14:56 42° W 22:18:57 11° SSW
Cosmos 1242 Rocket 3.3 22:13:05 10° NNW 22:16:42 52° W 22:18:48 22° SSW
MetOp-A 4.3 22:18:47 32° SE 22:21:08 57° ENE 22:26:22 10° N
SAR-Lupe-1 4.4 22:23:35 36° SSW 22:24:51 63° WSW 22:28:25 10° NNW
Cosmos 2061 Rocket 4.1 22:18:31 10° N 22:24:56 80° W 22:29:41 19° S
Cosmos 1503 Rocket 4.4 22:24:11 37° SE 22:25:12 41° E 22:30:02 10° NNE
GPS 2-05 Rocket1 4.1 22:23:50 10° WNW 22:26:40 33° N 22:27:52 24° NE
SL-14 R/B 3.2 22:27:17 38° S 22:28:45 88° W 22:32:41 10° N
ARGOS 3.4 22:27:52 36° SE 22:29:42 52° ENE 22:34:56 10° N
Cosmos 1500 Rocket 3.7 22:29:52 48° SE 22:30:37 55° E 22:34:58 10° NNE
SPOT 5 3.2 22:33:34 42° ESE 22:34:39 51° ENE 22:39:34 10° N
Tiangong 1 3.6 22:34:39 10° NNW 22:35:59 13° NNE 22:36:29 12° NNE
ERBS 3.0 22:34:57 10° NNW 22:37:55 43° NNE 22:37:55 43° NNE
Lacrosse 5 1.8 22:33:31 10° NW 22:38:36 85° NE 22:39:52 52° SE
Abrixas rocket 3.8 22:36:35 10° NNW 22:39:18 27° NNE 22:39:18 27° NNE
Cosmos 1725 Rocket 3.9 22:33:22 10° N 22:39:35 71° E 22:41:57 39° SSE
Cosmos 1603 3.7 22:34:37 10° NNW 22:40:15 79° WSW 22:42:21 40° S
EO 1 Delta rocket 3.9 22:42:59 51° ESE 22:43:32 54° ENE 22:48:02 10° N
Cosmos 1328 4.4 22:42:50 33° SW 22:44:22 55° W 22:48:20 10° N
H-2A R/B 2.4 22:46:14 44° ESE 22:47:07 49° ENE 22:52:19 10° N
Cosmos 1943 3.3 22:46:34 10° NNW 22:52:10 61° ENE 22:53:12 52° ESE
Cosmos 1151 Rocket 3.4 22:48:32 10° N 22:52:26 51° ENE 22:52:26 51° ENE
RESURS DK-1 3.1 22:49:05 10° NW 22:53:04 45° WSW 22:53:34 42° SW
Cosmos 2058 2.9 22:53:41 71° NE 22:53:41 71° NE 22:57:35 10° N
Terra 3.2 22:54:55 25° ENE 22:54:55 25° ENE 22:58:24 10° NNE
Cosmos 1328 Rocket 3.6 22:51:29 10° NNW 22:55:46 69° W 22:56:12 63° SW
Cosmos 332 Rocket 4.3 22:54:34 10° NNW 22:59:21 53° WSW 23:00:25 44° SW
H-2A R/B 4.0 23:04:24 19° NE 23:04:24 19° NE 23:06:29 10° NNE
Cosmos 1515 Rocket 3.5 23:01:06 10° N 23:05:19 76° WNW 23:05:19 76° WNW
USA 245 4.0 23:09:16 48° WNW 23:09:16 48° WNW 23:12:47 10° NNW
Cosmos 1354 Rocket 4.3 23:09:52 39° SW 23:11:42 64° WNW 23:16:54 10° N
Cosmos 1626 3.4 23:17:24 39° NNW 23:17:24 39° NNW 23:19:59 10° N
Cosmos 1763 Rocket 3.6 23:11:44 10° NNW 23:16:43 59° WSW 23:17:02 58° WSW
CZ-4C R/B 2.1 23:17:31 62° ENE 23:17:31 62° ENE 23:22:18 10° NNE
Cosmos 841 Rocket 3.4 23:12:45 10° NNW 23:17:58 79° WSW 23:18:05 78° WSW
OAO 1 Rocket 4.4 23:13:12 10° WNW 23:18:35 75° NNE 23:18:52 72° NE
Meteor 2-12 Rocket 4.2 23:13:49 10° N 23:19:53 78° E 23:20:24 72° SE
Cosmos 2233 Rocket 4.0 23:21:28 10° N 23:27:37 74° W 23:28:32 63° SSW
USA 234 4.1 23:31:16 10° NNE 23:37:29 48° NW 23:43:41 10° WSW
Cosmos 2263 Rocket 4.3 23:37:03 10° WSW 23:41:20 22° WNW 23:45:39 10° N
SPOT 1/Viking Rocket 4.3 23:42:40 42° W 23:42:40 42° W 23:47:30 10° NNW
SL-19 R/B 4.3 23:42:49 10° N 23:48:07 75° NW 23:48:07 75° NW
